Regional Weather Roundup
Issued by NWS Upton, NY

Current Version | Previous Version | Text Only | Print | Product List | Glossary On
Versions: 1 2 3 4 5 6 7 8 9 10 11 12 13 14 15 16 17 18 19 20 21 22 23 24 25 26 27
000 ASUS41 KOKX 171208 RWROKX Regional Weather Roundup National Weather Service New York NY 700 AM EST WED JAN 17 2018 Note: "FAIR" indicates few or no clouds below 12,000 feet with no significant weather and/or obstructions to visibility. NYZ071-072-176-178-NJZ106-104-171300- New York City Metro Area CITY SKY/WX TMP DP RH WIND PRES REMARKS Central Park CLOUDY 34 33 96 CALM 30.27S FOG Bronx Bot Gard N/A 34 32 93 W2 30.26F Bronx Lehman C N/A 34 32 93 N5 N/A WCI 30 LaGuardia Arpt LGT RAIN 35 33 92 NW10 30.25S WCI 27 Queens College N/A 36 34 93 N6 N/A WCI 31 Kennedy Intl LGT RAIN 36 36 100 NW9 30.25F VSB 1 WCI 29 Breezy Point N/A 34 N/A N/A NW7 N/A WCI 28 Brooklyn Coll N/A 36 34 93 NW8 N/A WCI 29 Staten Island N/A 34 32 93 N7 N/A WCI 28 Newark/Liberty LGT SNOW 34 32 92 NW9 30.26S FOG WCI 27 Teterboro LGT SNOW 33 31 92 N7 30.26S FOG WCI 27 $$ NYZ177-179-078>081-171300- Long Island New York CITY SKY/WX TMP DP RH WIND PRES REMARKS Jones Beach N/A 37 N/A N/A NE7 N/A WCI 32 Wantagh N/A 37 37 100 NE5 N/A WCI 34 Matinecock Pt N/A 34 N/A N/A E14 N/A WCI 24 Farmingdale MIX PCPN 36 36 100 NE5 30.24F FOG WCI 32 MacArthur/ISP LGT RAIN 39 38 96 NE6 30.24F WCI 35 Shirley LGT RAIN 38 38 100 CALM 30.25F Mt Sinai Harb N/A N/A N/A N/A E3 N/A Westhampton LGT RAIN 37 35 92 NE6 30.26F WCI 32 East Hampton LGT RAIN 35 34 96 NE7 30.25F WCI 29 Southold N/A 36 34 93 E8 N/A WCI 29 Montauk N/A 38 36 92 E7 30.27S WCI 33 $$ NYZ052-065-067-171300- Hudson Valley CITY SKY/WX TMP DP RH WIND PRES REMARKS White Plains LGT RAIN 34 33 96 NW6 30.22F FOG WCI 29 Larchmont Harb N/A 34 N/A N/A NW1 N/A Croton On Huds N/A 32 N/A N/A N2 N/A Somers N/A 32 32 100 N5 N/A WCI 27 Brewster N/A 32 32 100 N3 N/A Newburgh LGT SNOW 28 28 100 CALM 30.27F FOG Montgomery LGT SNOW 29 27 92 N3 30.26S VSB 3/4 Otisville N/A 28 28 100 CALM N/A Warwick N/A 28 28 100 CALM N/A Suffern N/A 32 32 100 N2 N/A Poughkeepsie LGT SNOW 28 26 92 NW3 30.28S FOG Albany LGT SNOW 26 22 84 NW6 30.31F FOG WCI 19 $$ NJZ001-105-106-008-010-013-015-019>022-104-171300- New Jersey CITY SKY/WX TMP DP RH WIND PRES REMARKS Newark/Liberty LGT SNOW 34 32 92 NW9 30.26S FOG WCI 27 Teterboro LGT SNOW 33 31 92 N7 30.26S FOG WCI 27 Caldwell LGT SNOW 32 32 100 CALM 30.27S FOG Somerville LGT SNOW 32 32 100 NW3 30.27R FOG Linden RAIN 34 32 93 CALM 30.27S Perth Amboy N/A 34 N/A N/A NW8 N/A WCI 27 Sussex LGT SNOW 29 28 96 CALM 30.27R VSB 1 Andover NOT AVBL Trenton LGT SNOW 33 32 96 NW7 30.27R VSB 1 WCI 27 Millville LGT SNOW 33 33 100 NW8 30.29R FOG WCI 26 Atlantic City CLOUDY 36 35 96 NW14G23 30.26R WCI 27 Wrightstown LGT SNOW 33 32 96 NW5 30.24S FOG WCI 28 Toms River LGT RAIN 34 33 96 NW10 30.25F FOG WCI 26 Belmar LGT RAIN 34 33 96 NW9 30.25S FOG WCI 27 $$ PAZ047>061-062-071-171300- Eastern Pennsylvania CITY SKY/WX TMP DP RH WIND PRES REMARKS Philadelphia LGT SNOW 33 30 88 NW13 30.31R FOG WCI 24 Allentown LGT SNOW 30 25 81 NW9 30.30S WCI 22 Scranton LGT SNOW 25 25 100 SW8 30.28F FOG WCI 16 $$ CTZ002-004>006-009-010-012-RIZ004-006-007-MAZ004-011-015-171300- Southern New England In CT CITY SKY/WX TMP DP RH WIND PRES REMARKS Bradley Intl LGT SNOW 30 29 96 N7 30.28F FOG WCI 23 Hartford LGT SNOW 31 30 96 N5 30.28F FOG WCI 26 Danbury LGT SNOW 33 31 92 NE3 30.25S FOG Wtrbury/Oxford LGT SNOW 30 30 100 E6 30.24F VSB 1 WCI 24 Norwalk Harbor N/A 34 N/A N/A NE18 N/A WCI 23 Bridgeport LGT RAIN 36 34 92 E10 30.26F WCI 28 Meriden LGT SNOW 31 29 92 N5 30.28S FOG WCI 26 New Haven CLOUDY 33 31 92 N7 30.26F FOG WCI 27 Chester LGT SNOW 34 32 93 CALM 30.25F Groton LGT RAIN 34 32 92 NE6 30.27S WCI 29 Willimantic LGT SNOW 33 32 96 N5 30.28F FOG WCI 29 In RI CITY SKY/WX TMP DP RH WIND PRES REMARKS Providence LGT SNOW 33 33 100 N6 30.30S VSB 1 WCI 28 Block Island LGT RAIN 35 35 100 NE10 30.28R WCI 27 Westerly LGT RAIN 34 34 100 NE5 30.28S FOG WCI 30 In MA CITY SKY/WX TMP DP RH WIND PRES REMARKS Boston LGT SNOW 32 31 96 NE3 30.32S VSB 1 Worcester LGT SNOW 28 26 92 NE3 30.25F VSB 1 Westfield LGT SNOW 29 28 96 N6 30.28F FOG WCI 23 Provincetown LGT RAIN 33 31 92 E8 30.31 WCI 26 Nantucket CLOUDY 37 37 100 NE10 30.25F WCI 30 $$ ANZ330-335-338-340-345-350-353-355-171300- Coastal Marine Observations STATION/POSITION TIME SKY/WX TEMP WIND PRES VSBY WAVE AIR SEA DIR/SP/G HT/PER (UTC) (F) (DEG/KT/KT) (MB) (MI) (FT/S) NY Harb Entrance 1050 40 42 40/ 10/ 12 1023.4 5/10 20 S Fire Island 1050 43 41 90/ 4/ 6 1023.6 5/10 15 E Barnegat Li 1130 43 N/A 5/ 9 Hudson Canyon 1050 47 50 40/ 14/ 17 1022.3 7/10 Kings Point 1130 33 32 40/ 8/ 8 1025.2 Execution Rocks NOT AVBL Western LI Sound NOT AVBL Central LI Sound 1130 36 80/ 12/ 14 N/A 1 Robbins Reef 1142 35 320/ 9/ 11 1025.1 $$ >>>>>>>>>>>>>>>>>>>>>>>>>>>> KEY <<<<<<<<<<<<<<<<<<<<<<<<<<< > < > SKY/WX - Sky Condition/Present Weather < > TMP - Temperature in Fahrenheit < > DP - Dew Point in Fahrenheit < > RH - Relative Humidity in Percent < > WIND - Direction (from) and Speed in MPH < > PRES - Mean Sea Level Pressure (inches of Hg) < > WCI - Wind Chill Index < > VSB - Visibility in Miles < > HX - Heat Index < > TC - Temperature in Celsius < > VRB - Varibale Wind Direction < > < >>>>>>>>>>>>>>>>>>>>>>>>>>>> KEY <<<<<<<<<<<<<<<<<<<<<<<<<<<

USA.gov is the U.S. government's official web portal to all federal, state and local government web resources and services.